Flag for Poland Weather past 2 weeks in Włocławek, Poland

Now
59 °F

Refreshingly cool.


Feels Like: 58 °F
Forecast: 43 / 65 °F
Wind: 6 mph from Northwest

Location: Plock

Current Time: May 27, 2015 at 5:00:18 PM

Latest Report: May 27, 2015 at 4:00 PM


Visibility: 28 mi

Pressure: 29.96 "Hg

Humidity: 45%

Dew point: 38 °F

Location of WłocławekLocation

Historic Weather in Włocławek — Graph

°F

Włocławek temperature yesterday

Maximum temperature yesterday: 66 °F (at 2:00 PM)
Minimum temperature yesterday: 50 °F (at 11:00 PM)
Average temperature yesterday: 58 °F

Past Weeks' High & Low Weather Summary

 TemperatureHumidityPressure
High74 °F (May 19, 1:00 PM)97% (May 26, 3:00 AM)30.29 "Hg (May 26, 3:00 AM)
Low32 °F (May 16, 4:00 AM)33% (May 16, 2:00 PM)29.69 "Hg (May 19, 12:00 PM)
Average56 °F68%29.97 "Hg
* Reported May 12 3:00 PM — May 27 3:00 PM, Włocławek, Weather by CustomWeather, © 2015

Note: Actual official high and low records may vary slightly from our data, if they occured in-between our weather recording intervals... More about our weather records

Advertising

Włocławek weather history for previous 24 hours

 ConditionsComfort  
Time TempWeatherWind HumidityBarometerVisibility
3:00 PM
Wed, May 27
59 °FRefreshingly cool.5 mph45%29.96 "Hg19 mi
2:00 PM58 °FRefreshingly cool.6 mph51%29.96 "Hg19 mi
1:00 PM56 °FRefreshingly cool.6 mph55%29.97 "Hg19 mi
12:00 PM56 °FRefreshingly cool.5 mph58%29.97 "Hg22 mi
11:00 AM55 °FCool.6 mph59%29.97 "Hg18 mi
10:00 AM53 °FCool.5 mph69%29.97 "Hg18 mi
9:00 AM51 °FCool.5 mph77%29.97 "Hg17 mi
8:00 AM48 °FCool.5 mph84%29.97 "Hg17 mi
7:00 AM46 °FCool.5 mph87%29.97 "Hg19 mi
6:00 AM44 °FQuite cool.3 mph87%29.96 "Hg22 mi
4:00 AM45 °FQuite cool.3 mph83%29.95 "Hg28 mi
3:00 AM47 °FCool.3 mph80%29.94 "Hg31 mi
2:00 AM48 °FCool.3 mph81%29.94 "Hg28 mi
1:00 AM49 °FCool.3 mph83%29.93 "Hg28 mi
12:00 AM50 °FCool.3 mph79%29.92 "Hg28 mi
11:00 PM
Tue, May 26
50 °FCool.2 mph82%29.93 "Hg22 mi
10:00 PM51 °FCool.3 mph80%29.93 "Hg28 mi
9:00 PM53 °FLight rain. Overcast.5 mph79%29.92 "Hg19 mi
8:00 PM54 °FLight rain. Cloudy.5 mph86%29.90 "Hg13 mi
7:00 PM57 °FLight rain. Cloudy.3 mph88%29.88 "Hg6 mi
6:00 PM57 °FLight rain. Cloudy.2 mph85%29.87 "Hg6 mi
5:00 PM59 °FDrizzle. Cloudy.5 mph77%29.85 "Hg10 mi
Weather by CustomWeather, © 2015

See weather overviewHow to use our weather pages